Wind_Gust
8 8 6 5 4 4 7 12 10 13 8 8 6 7 20 6 9 14 17 9 12 7 8 7 7 9 8 12 19 16 15 8 5 17 12 18 9 18 21 22 19 20 22 18 16 17 17 18 21 22 21 22 22 22 22 22 22 21 20 20 20 19 18 18 18 18 18 18 17 17 17 16 16 15 15 16 16 15 15 16 16 16 16 17 16 17 17 17 16 17 17 17 18 18 19 18 18
6 8 6 4 5 3 6 4 11 4 10 5 14 3 17 7 6 11 17 5 8 7 6 18 20 25 25 22 17 15 20 17 10 16 18 20 20 21 20 21 19 25 21 18 18 16 15 18 21 21 22 23 23 23 22 21 21 21 20 21 20 19 18 17 17 18 19 16 17 18 17 16 16 16 15 15 14 14 13 15 17 18 17 17 17 16 17 17 16 17 17 16 18 19 18 18 17
5 7 8 10 8 8 5 6 13 5 6 12 17 17 7 5 10 19 19 11 14 14 13 17 16 11 7 4 15 9 4 13 24 21 24 18 23 17 16 18 19 21 21 19 21 17 15 17 20 21 23 23 23 22 21 20 20 20 20 20 19 19 18 17 17 17 16 16 17 16 16 16 16 16 16 15 14 14 15 16 18 18 17 17 16 16 17 16 18 16 15 16 17 18 19 18 16
3 4 4 6 7 10 5 8 5 14 9 14 16 15 11 8 18 15 14 7 15 12 10 7 11 10 9 21 15 14 14 13 14 21 28 13 16 22 19 19 22 21 18 18 18 17 15 18 20 22 24 24 22 22 21 20 20 20 20 20 19 19 17 17 16 15 16 16 16 16 17 17 17 18 18 17 16 17 16 16 17 18 17 17 17 17 17 16 15 15 15 15 17 18 18 16 15
5 5 5 8 10 7 7 9 8 9 13 15 14 9 7 11 17 14 17 7 12 8 11 13 18 10 11 14 4 9 11 15 16 12 23 17 22 20 19 17 19 20 19 17 18 17 16 21 20 20 22 23 22 21 21 21 20 20 20 20 20 18 17 16 16 16 16 16 16 16 17 17 17 18 19 18 17 17 17 17 16 17 17 16 16 15 14 13 15 15 14 15 17 17 16 15 14
5 6 4 5 6 8 8 6 8 9 16 10 10 11 8 12 10 12 13 11 9 6 10 5 17 7 14 10 11 15 15 14 17 16 25 20 23 21 20 17 20 22 19 17 16 14 16 20 20 20 21 22 21 21 21 21 21 20 20 20 19 18 16 17 16 16 16 16 16 16 17 18 18 18 19 19 17 17 17 16 16 15 15 16 15 14 14 14 13 13 13 15 16 15 15 14 13
5 8 9 7 7 9 11 7 9 10 20 11 21 13 11 16 17 16 12 8 8 13 8 21 23 20 23 15 16 17 11 16 17 20 19 23 21 20 19 20 22 23 19 17 15 16 17 19 20 20 20 21 21 21 21 21 20 20 20 19 18 18 17 16 16 16 16 17 16 16 17 18 19 19 18 17 16 16 16 16 16 15 14 13 14 14 14 15 14 13 12 13 14 13 13 13 13
2 7 5 6 8 5 5 6 11 10 15 16 12 13 18 19 17 12 15 6 11 14 8 17 8 22 6 7 15 13 17 17 26 24 27 25 20 18 21 22 25 23 21 16 15 15 21 19 19 20 21 20 21 21 21 21 20 20 19 19 18 18 17 16 15 15 14 16 16 17 18 19 19 18 17 17 17 15 15 15 15 15 14 14 14 14 14 14 13 11 12 12 11 12 13 13 13
6 8 4 11 5 8 5 9 14 10 17 9 15 13 17 18 19 13 18 9 6 3 10 13 12 21 8 19 17 12 26 26 27 25 24 22 20 20 23 22 25 22 20 18 15 14 15 18 19 19 21 20 21 21 20 20 20 20 19 19 18 15 15 15 15 14 14 13 15 17 18 18 18 18 17 16 16 15 15 15 15 15 14 14 14 14 13 13 12 10 10 10 11 12 12 13 14
3 4 5 10 8 6 5 14 7 10 11 8 12 18 19 20 16 15 19 7 12 11 3 7 11 22 20 24 19 11 22 24 24 23 20 19 21 20 20 20 23 23 19 18 14 15 15 22 20 19 19 21 21 20 20 19 20 19 19 18 16 15 16 15 14 14 14 15 16 16 17 17 17 16 16 16 16 16 15 14 14 15 15 14 14 14 13 12 10 9 9 9 11 12 12 12 13
7 8 6 8 3 6 11 11 9 15 15 15 15 19 21 22 21 24 17 7 17 16 14 25 25 21 18 14 13 9 16 21 23 21 20 24 23 22 20 19 20 20 21 17 16 15 17 17 22 19 18 19 18 18 18 18 19 18 16 14 15 17 16 15 14 15 15 16 17 17 16 16 16 16 17 16 16 16 15 15 15 16 14 13 13 13 13 11 10 9 9 9 10 11 11 11 13
6 5 4 6 8 12 10 7 10 16 16 10 23 17 10 20 19 21 26 13 12 19 19 9 23 28 20 18 17 16 14 15 19 20 22 22 23 23 21 19 19 17 20 20 17 16 16 16 16 20 19 17 17 18 18 20 19 18 16 17 15 15 15 14 13 14 16 16 15 14 14 15 16 16 16 16 15 15 15 15 15 15 14 13 12 12 12 11 9 8 9 9 10 11 11 11 12
8 4 7 7 9 4 6 5 14 11 13 18 16 24 10 17 17 21 15 15 15 13 11 8 31 8 19 16 19 14 16 14 20 21 22 24 21 22 20 20 19 19 19 19 19 18 16 15 16 15 15 20 17 17 18 18 18 17 15 15 14 16 16 15 16 16 16 14 13 14 13 13 15 15 15 16 15 14 14 14 14 14 13 12 13 12 11 10 8 8 8 9 10 10 10 11 11
10 12 10 9 3 5 6 8 7 9 17 22 16 18 14 12 16 18 18 18 15 17 7 24 19 20 22 24 19 18 19 17 22 21 23 22 22 23 21 19 17 17 17 19 20 18 15 12 11 9 12 11 12 16 17 18 18 17 14 14 15 16 15 16 16 15 13 14 16 15 15 14 14 14 14 15 15 14 14 14 14 13 13 12 12 13 12 9 8 7 7 8 10 10 10 11 10
11 5 5 6 7 3 6 10 6 4 18 15 17 14 16 5 7 14 20 21 13 8 19 9 26 19 26 25 21 21 23 21 24 23 25 25 25 23 20 17 16 15 14 14 14 14 11 11 12 11 10 10 10 9 8 15 19 17 14 15 15 15 15 16 17 15 15 15 16 16 16 15 13 13 14 14 14 14 14 13 13 13 12 11 11 12 12 10 8 6 7 8 8 9 10 9 8
11 6 7 6 9 7 14 6 5 6 21 5 13 15 10 14 9 13 6 19 20 13 8 19 8 7 24 10 27 28 27 26 25 26 28 27 24 20 18 17 16 16 12 11 12 11 13 14 13 14 12 11 10 9 9 9 15 18 15 16 16 16 17 17 15 15 16 16 17 16 16 14 14 12 15 13 13 14 13 10 13 12 11 11 10 11 11 10 8 6 7 7 7 7 9 8 7
4 8 7 9 13 7 10 9 7 11 13 12 14 16 16 11 6 10 7 20 25 8 14 11 6 13 21 22 27 29 26 26 27 28 26 24 23 18 13 11 12 10 10 9 8 10 11 13 12 13 13 13 12 10 8 8 12 15 14 17 17 17 17 17 15 16 15 14 13 13 11 10 7 8 10 7 11 8 10 12 13 12 11 10 10 10 11 9 9 8 5 5 6 7 7 7 8
5 9 12 10 13 12 9 10 9 7 13 15 21 19 10 11 9 10 18 20 21 19 20 21 25 20 24 28 26 27 27 28 27 26 23 23 21 18 15 12 13 13 12 11 8 9 11 10 11 11 12 10 9 8 7 6 8 11 6 8 9 13 15 15 12 7 9 6 13 12 8 7 6 5 6 8 6 8 10 13 12 12 11 10 9 9 9 8 8 8 6 4 5 6 8 6 8
10 8 11 20 11 14 5 6 11 10 15 19 18 17 7 6 8 6 20 8 21 24 16 25 27 26 26 25 26 28 25 23 24 23 23 22 19 18 16 13 11 12 11 11 10 9 9 10 8 10 9 9 9 9 9 7 9 7 6 7 7 9 9 9 7 7 6 8 7 7 5 4 3 3 4 6 6 8 8 14 13 12 12 11 10 9 8 8 8 8 6 5 4 7 5 6 9
11 10 14 18 8 8 6 9 13 13 14 19 14 17 9 9 8 6 16 13 23 30 27 22 32 29 26 27 27 25 23 21 22 22 21 18 16 17 16 16 14 11 10 8 9 9 9 9 9 9 9 9 10 10 10 10 9 8 8 7 8 7 6 7 5 6 6 6 7 5 5 4 3 2 6 12 10 6 7 11 13 13 12 12 11 7 8 8 9 7 7 5 6 6 4 4 9
8 12 18 9 8 8 11 9 14 14 19 17 9 12 14 16 5 13 15 19 9 13 27 39 34 33 30 28 27 24 23 21 19 20 21 18 13 11 14 15 15 12 11 11 10 9 7 8 9 9 11 11 11 11 11 11 10 9 8 8 7 7 7 6 6 5 4 4 4 5 4 4 4 4 6 5 2 3 3 3 4 3 6 6 8 4 3 3 4 3 2 4 4 4 3 3 8
7 10 7 9 9 10 14 15 16 15 13 3 6 11 9 9 11 18 19 21 19 24 15 28 35 35 35 30 25 24 22 19 19 19 21 22 20 14 12 12 11 11 12 13 11 10 8 9 8 9 11 10 10 11 11 11 12 9 9 9 8 7 7 4 3 4 4 5 5 5 4 5 3 3 5 4 4 2 1 3 6 5 3 4 5 6 3 2 3 4 4 5 4 4 2 2 4
14 14 7 9 10 12 8 9 9 7 14 9 10 5 3 7 7 4 10 21 13 16 16 22 28 27 27 27 27 25 21 20 20 20 21 21 19 15 14 14 16 17 12 11 11 10 9 9 9 10 12 10 9 8 9 8 9 9 9 9 10 9 6 6 4 4 4 5 5 6 6 4 5 5 2 2 3 2 3 4 6 6 7 5 3 5 4 4 4 5 5 4 2 3 3 2 4
14 23 5 10 10 14 14 14 13 13 15 15 8 4 11 9 7 6 10 8 17 21 20 21 21 23 25 28 23 24 22 21 21 21 21 21 18 18 17 16 13 12 13 12 11 10 10 9 8 10 11 10 9 10 10 9 7 9 9 9 8 9 8 7 6 5 5 5 5 6 5 6 7 6 5 5 6 2 4 4 6 6 6 5 6 5 5 4 4 5 4 3 3 3 4 3 4
14 20 13 13 8 11 12 12 15 15 16 16 7 10 3 7 5 6 9 15 20 22 22 22 22 21 20 22 23 23 22 22 24 23 22 17 13 13 14 11 12 11 13 13 11 11 10 10 8 10 10 10 8 9 9 8 8 8 8 8 9 9 8 8 7 6 6 5 4 5 6 6 3 4 6 6 4 5 5 6 5 7 6 7 5 7 6 6 6 6 6 6 6 6 6 6 6
12 16 11 9 10 9 10 8 12 14 14 9 10 9 8 17 19 20 9 16 20 23 22 22 22 21 21 22 23 23 23 25 26 24 23 18 17 17 12 11 14 13 12 14 11 10 10 10 10 9 9 10 9 7 8 9 9 9 9 9 7 8 7 6 5 6 6 6 6 5 6 6 6 7 5 3 5 6 6 6 4 6 8 7 7 8 7 6 8 7 6 6 7 8 7 10 7
6 5 11 15 16 11 6 9 9 10 9 8 8 8 11 6 13 7 8 17 22 23 22 20 21 23 20 21 23 23 24 24 24 23 21 18 16 20 17 13 13 13 16 15 14 11 11 11 10 9 9 9 7 8 7 8 7 8 7 7 6 6 5 5 4 5 5 6 7 6 7 7 5 5 5 5 5 7 7 7 7 6 7 8 7 8 4 6 7 8 8 8 8 8 11 9 7
8 10 8 7 11 10 6 3 10 4 11 5 8 6 9 6 9 20 17 14 21 26 23 21 20 22 24 22 25 20 20 17 20 21 21 18 18 14 13 14 13 13 14 15 11 11 11 10 11 9 9 9 7 7 7 7 7 6 5 6 6 5 5 6 5 5 7 8 6 7 6 6 6 5 6 6 7 7 8 8 8 7 9 7 6 7 6 6 6 7 7 7 7 7 8 4 6
10 8 10 11 8 13 8 12 7 7 9 7 4 7 10 8 12 20 20 19 18 25 22 21 21 24 25 25 23 21 20 16 14 15 12 12 11 8 11 10 12 12 7 10 11 11 13 12 12 9 8 7 6 7 8 6 5 5 5 6 6 7 6 6 7 7 7 5 4 4 5 5 5 7 6 7 7 7 7 7 8 8 9 8 7 6 6 4 3 3 5 3 4 5 5 3 6
8 3 9 8 7 9 12 4 5 9 8 6 10 9 13 10 13 17 21 23 20 23 22 21 21 22 24 24 24 20 16 15 12 13 12 11 11 11 12 11 12 11 12 9 11 11 12 10 10 9 9 8 7 5 5 4 4 4 5 6 5 6 6 6 7 4 5 5 5 6 7 7 7 6 6 5 6 7 8 8 9 9 8 6 5 6 7 5 6 4 5 3 7 6 7 4 6
9 8 3 7 3 10 8 6 7 13 8 8 8 11 13 8 11 18 19 24 27 23 21 20 22 21 23 22 23 19 14 13 15 12 10 9 9 10 11 10 10 10 10 10 11 11 10 10 10 9 10 6 7 5 6 6 4 5 5 4 5 5 5 6 5 5 5 6 6 7 8 8 7 6 6 8 8 9 9 9 9 11 5 5 5 6 7 5 7 8 4 6 5 5 3 4 5
6 9 11 8 7 11 12 7 11 15 5 9 10 9 14 11 18 20 19 19 22 25 21 22 20 21 23 19 20 20 17 15 15 13 11 10 9 11 11 12 11 11 11 10 11 10 10 8 9 9 8 7 6 7 5 6 6 6 5 7 5 4 5 6 6 6 6 5 7 7 7 8 6 7 7 8 8 7 8 8 9 7 6 5 6 5 5 7 7 6 6 6 7 6 3 3 3
8 8 8 6 5 9 9 4 7 10 10 2 13 14 7 5 17 18 19 22 22 25 23 21 23 24 23 21 19 19 19 17 16 15 14 10 8 10 11 11 11 11 11 11 9 9 9 8 11 9 9 8 8 6 7 5 5 5 4 4 5 5 6 6 5 5 6 6 7 7 6 7 7 7 8 8 8 8 8 8 8 7 5 5 5 5 6 6 7 8 7 7 7 9 5 3 3
12 5 12 8 7 6 8 11 5 5 8 7 8 12 7 8 21 17 16 22 23 25 23 23 23 20 20 22 20 18 16 15 16 14 13 10 11 11 10 11 12 12 10 10 9 11 11 10 10 10 9 9 8 9 8 6 5 4 5 6 5 6 3 3 3 5 8 8 7 8 6 7 8 8 7 9 8 9 9 9 7 7 4 5 5 5 7 4 6 7 8 7 8 8 7 6 5
13 5 5 7 3 5 10 10 7 6 8 12 3 8 13 9 20 24 30 23 25 25 24 22 21 21 22 21 19 17 17 15 13 13 13 13 12 11 11 10 9 9 8 7 7 7 8 8 8 8 8 7 6 6 4 6 6 5 5 5 4 5 6 5 5 7 8 7 8 8 7 8 9 6 6 7 8 8 7 7 7 4 4 5 6 6 6 5 6 7 8 8 6 8 8 8 8
11 9 9 7 9 9 10 13 7 10 8 15 7 12 15 13 19 16 22 21 23 22 20 20 20 20 20 18 17 16 16 14 11 13 13 12 11 13 12 12 11 10 9 9 8 7 7 6 5 5 5 5 4 4 7 6 5 6 5 6 6 6 7 7 6 8 6 8 9 8 8 8 6 7 5 5 7 7 6 6 6 4 3 4 7 9 10 8 10 8 9 9 8 5 6 7 7
7 6 6 10 10 12 7 5 7 7 9 14 13 13 11 7 17 27 25 24 20 23 21 19 17 19 20 19 18 18 16 15 12 15 15 14 14 13 13 13 13 11 10 9 8 5 5 8 8 6 4 5 7 8 9 8 3 5 4 4 7 6 7 6 8 7 8 9 8 8 7 8 6 6 6 4 5 7 7 6 6 5 4 4 6 9 9 8 7 7 6 6 9 9 7 8 7
11 7 6 12 5 14 10 9 8 8 14 10 14 18 17 13 10 18 22 25 23 21 21 22 25 21 22 22 20 19 17 14 15 16 17 15 16 16 16 15 13 13 9 9 8 7 6 7 9 7 7 7 7 5 7 10 6 8 6 7 7 6 6 7 10 8 11 9 7 7 6 6 6 6 7 4 5 5 6 6 7 7 6 7 7 6 6 8 6 7 6 7 6 11 12 11 11
10 11 7 4 14 7 9 6 6 10 11 8 18 21 17 16 15 16 20 23 21 22 22 25 29 26 21 21 20 20 18 19 17 16 16 16 16 16 16 15 14 12 11 11 10 12 12 12 10 9 11 10 10 8 6 4 2 3 6 4 6 6 5 7 8 8 5 6 6 6 6 5 5 6 7 6 6 5 6 7 7 7 8 8 7 8 7 9 7 8 9 10 8 7 8 7 12
10 5 7 18 9 8 10 9 8 8 20 12 20 23 15 16 18 19 12 19 22 22 23 22 20 22 22 19 17 22 19 19 17 17 17 15 15 17 17 16 14 13 13 13 12 12 12 13 11 12 12 11 12 11 9 8 8 7 4 5 6 4 5 6 5 6 6 4 7 6 6 6 6 7 6 6 5 5 5 7 7 7 8 9 9 9 8 9 9 8 7 10 9 9 11 10 11
11 10 9 15 9 9 10 10 7 13 12 28 23 21 12 10 22 23 19 21 24 20 21 20 19 20 20 19 18 19 18 17 18 18 16 17 17 17 17 13 13 15 15 14 12 12 13 12 11 11 12 11 10 11 11 9 12 12 11 8 8 8 8 12 13 14 13 8 8 7 9 6 7 7 5 5 7 7 5 7 7 8 8 8 9 8 9 10 8 9 11 11 11 14 13 12 10
17 9 15 19 10 6 4 5 3 9 10 15 25 15 8 9 15 24 22 26 22 19 21 18 18 18 19 20 17 18 16 12 17 16 15 16 17 17 18 14 16 15 18 12 10 13 13 11 11 11 11 12 11 10 10 11 12 12 14 14 14 11 11 14 14 11 12 12 11 7 9 8 7 6 6 6 7 7 8 8 8 9 9 10 10 11 12 10 8 9 10 10 12 13 15 11 15
13 20 16 20 12 5 3 8 7 9 23 20 10 23 15 8 18 17 22 21 23 21 18 17 18 17 17 16 16 18 18 16 16 16 14 18 15 20 17 16 15 16 14 8 12 14 12 11 10 10 11 10 10 11 11 11 13 12 11 10 9 10 9 9 8 9 9 9 7 10 8 7 4 5 6 6 7 8 8 8 9 9 13 11 10 12 12 13 11 11 9 11 13 12 11 13 14
25 8 15 14 8 8 11 8 13 13 8 7 4 19 25 17 20 21 15 21 24 22 17 16 16 17 16 14 17 17 17 15 19 17 14 18 17 16 18 17 15 14 12 9 14 12 12 12 11 12 12 12 10 10 12 12 11 9 10 10 10 10 10 10 10 11 10 9 11 11 8 8 6 6 5 5 7 8 7 9 7 10 9 9 9 11 13 11 12 11 11 12 13 12 13 17 16
17 7 15 12 14 13 14 15 11 10 11 13 8 10 23 18 16 16 17 20 18 20 18 17 16 16 17 17 19 18 16 15 18 18 14 17 17 14 15 20 13 13 13 10 11 12 11 14 13 12 13 12 11 12 12 12 11 10 11 10 10 10 9 9 9 10 12 13 12 13 13 12 12 9 7 6 6 5 4 6 8 10 11 10 7 9 9 10 11 12 11 11 11 13 13 15 17
13 10 8 8 7 8 12 12 13 8 9 16 15 21 24 13 12 19 18 16 18 18 18 17 17 17 18 18 18 17 15 15 18 19 15 15 16 15 14 16 16 13 11 8 9 12 13 14 15 14 13 12 11 12 12 12 12 11 13 12 11 11 11 10 10 13 12 11 12 13 12 13 13 13 13 9 9 7 7 6 6 7 9 8 10 12 12 12 14 15 14 12 13 14 14 16 17
5 10 10 5 5 9 8 10 12 8 17 22 17 15 18 22 20 23 25 27 28 20 17 18 19 19 17 16 18 17 17 17 18 18 16 15 14 14 15 15 14 13 10 9 10 11 12 14 14 15 12 12 12 12 11 12 12 13 13 11 12 12 11 11 14 15 15 14 14 13 13 12 12 12 12 11 9 10 10 9 7 7 7 9 9 9 12 14 16 15 13 12 13 15 13 12 15
11 16 14 6 10 8 6 7 6 18 22 12 13 20 16 26 18 18 11 11 20 23 25 23 21 20 20 16 16 17 17 17 18 18 17 14 15 15 14 14 15 12 10 9 9 9 11 12 14 15 13 12 11 10 11 12 11 12 11 12 12 11 11 12 13 12 12 12 12 13 12 12 13 11 11 12 13 15 13 11 8 8 9 10 11 10 9 10 10 9 10 11 13 13 13 13 13
18 13 11 18 15 16 19 11 17 20 22 9 14 16 12 17 7 8 17 15 19 16 15 24 24 22 20 19 17 15 16 16 16 16 16 12 13 13 12 13 12 12 11 7 10 9 10 12 14 15 11 9 9 9 9 9 11 12 12 12 11 12 13 12 11 12 12 12 12 12 14 14 15 17 17 15 15 15 14 13 12 10 10 9 10 10 10 9 9 9 11 11 11 11 10 9 11
16 22 16 19 19 19 19 12 13 10 12 8 12 11 16 7 7 8 14 14 18 17 18 20 20 21 21 19 16 16 14 14 14 15 14 12 11 11 9 12 12 10 8 8 8 9 9 12 12 13 8 7 7 9 9 11 11 11 11 11 10 10 10 10 10 11 11 10 10 10 11 11 12 11 12 13 14 13 13 12 11 11 10 10 10 12 11 8 9 10 11 13 13 13 11 13 16
20 10 20 16 17 25 21 17 23 18 14 8 10 23 18 14 8 9 16 16 20 20 19 16 16 16 17 15 16 16 15 12 13 14 14 13 13 11 12 11 9 8 7 8 8 9 11 10 11 10 9 8 8 8 9 10 11 10 10 10 10 8 9 9 9 9 10 10 9 10 11 12 12 12 12 12 13 15 14 13 14 15 15 14 13 12 11 9 10 11 10 11 12 10 11 12 12
12 14 14 13 29 16 8 16 14 13 12 8 12 12 7 8 5 11 17 19 20 20 20 18 17 15 16 16 16 14 13 13 11 12 13 12 11 10 12 10 9 8 8 9 10 10 11 10 9 8 8 7 7 7 7 8 8 8 8 9 10 9 9 9 9 10 10 10 12 14 15 14 15 15 14 16 16 14 15 16 15 15 16 17 18 20 18 14 11 10 10 11 13 12 12 13 14
18 19 29 27 13 15 10 4 3 7 14 9 8 13 10 9 8 11 19 21 18 19 19 20 18 17 16 16 15 13 13 13 12 11 11 10 8 10 10 9 10 9 10 10 10 9 10 10 10 9 9 7 8 7 7 6 9 10 11 11 11 11 11 9 10 10 11 11 12 13 13 14 15 17 17 17 18 17 17 17 15 15 16 21 22 23 22 21 21 17 15 13 12 11 12 13 12
19 28 20 8 7 13 23 19 7 8 19 14 7 14 15 15 16 10 17 20 18 19 18 19 18 17 17 16 13 14 14 13 12 10 8 9 11 14 13 11 11 12 10 9 9 7 8 8 8 8 8 10 8 8 9 10 11 11 12 13 12 11 10 11 12 12 12 14 14 14 14 16 15 16 18 18 17 18 17 18 17 18 18 21 22 22 22 22 21 19 19 18 18 18 16 13 13
22 21 13 28 16 19 11 18 14 11 13 13 8 11 11 13 14 20 20 23 22 22 19 20 20 18 17 16 15 13 12 13 13 12 12 11 12 13 16 12 11 10 9 9 9 9 8 7 6 8 9 9 8 9 9 12 11 11 11 11 12 13 12 11 11 12 13 15 15 15 15 15 15 15 17 18 19 19 20 19 18 17 17 20 21 22 23 21 21 20 20 18 18 18 17 17 14
4 12 21 9 13 13 13 22 13 19 9 11 9 13 17 18 19 22 23 24 23 24 22 20 19 17 17 17 16 15 12 12 14 13 13 14 12 13 15 13 12 12 12 10 9 9 10 7 8 9 12 13 14 14 12 13 11 12 13 13 13 12 13 12 12 13 15 16 17 17 17 17 17 16 16 15 17 17 20 19 19 19 18 20 23 22 24 23 23 21 20 19 19 19 18 17 18
12 17 16 15 17 8 14 8 14 14 22 15 17 16 17 11 18 24 25 26 26 26 22 21 18 18 17 17 17 14 12 12 13 14 14 15 15 14 14 12 11 11 10 10 11 11 9 11 12 13 14 13 13 10 11 9 11 12 13 13 13 12 12 13 14 14 15 17 16 17 17 15 15 16 16 16 17 17 19 19 18 19 18 20 20 20 21 20 19 19 20 19 20 20 19 18 17
18 20 18 15 14 13 15 17 8 13 19 19 18 20 12 11 6 19 23 21 21 19 20 19 20 18 16 15 14 14 14 10 12 13 13 15 16 16 14 13 11 13 14 13 11 13 14 13 13 14 14 11 10 11 10 9 9 11 11 13 13 12 12 13 14 14 14 14 13 14 14 14 14 14 15 15 17 14 16 17 16 18 19 18 19 19 20 20 21 21 21 18 19 20 19 19 18
Wind_Speed
5 6 4 2 2 3 2 5 0 3 2 4 2 1 6 1 3 5 6 4 5 1 0 3 5 4 1 2 9 11 6 2 1 4 4 2 4 10 12 14 11 11 12 10 9 9 9 13 16 18 16 16 16 15 15 16 16 16 16 16 15 15 15 15 14 14 15 14 13 13 13 13 13 12 12 11 11 11 11 12 12 13 13 12 12 13 13 12 11 12 13 14 14 14 14 14 14
4 5 2 2 1 1 0 1 3 1 4 1 7 0 6 3 3 5 7 1 3 1 3 9 11 12 13 14 10 3 9 10 4 4 5 9 11 10 11 14 13 14 12 10 9 9 8 11 16 16 17 17 16 16 15 16 16 16 16 16 16 15 14 14 14 15 15 13 14 14 14 13 13 13 12 12 11 11 9 12 13 13 13 13 12 13 13 11 12 11 12 13 14 15 14 13 13
3 5 3 5 3 4 0 2 3 1 3 6 7 7 3 2 5 10 3 7 4 5 5 10 8 4 4 3 9 5 1 6 9 8 8 11 13 10 10 12 12 12 13 10 10 9 8 10 15 16 17 17 16 15 16 16 16 16 16 15 15 15 14 14 14 14 13 13 13 13 13 13 13 13 13 12 11 11 11 12 14 13 13 13 12 13 12 12 11 11 11 13 14 14 14 13 12
2 3 2 3 1 4 1 3 3 7 3 7 6 6 4 5 11 2 1 3 2 3 2 0 4 3 5 11 7 8 7 2 4 6 7 4 4 12 11 13 12 10 9 9 9 9 8 12 16 17 17 17 16 16 16 16 16 16 16 16 15 15 14 14 13 12 13 13 13 13 14 14 14 14 14 13 12 13 12 13 13 14 13 13 13 13 11 11 11 11 11 12 13 14 14 12 12
2 2 2 4 4 1 2 2 3 4 6 5 6 4 4 6 11 0 1 4 6 4 4 1 5 2 5 7 1 2 3 7 2 6 4 7 10 11 11 12 11 11 10 10 9 9 9 17 16 15 16 17 16 16 16 16 16 15 16 16 15 15 14 13 13 13 13 13 12 13 14 14 14 14 14 14 14 14 13 13 13 13 13 13 12 11 11 10 10 10 10 12 13 13 12 11 11
3 3 2 2 0 2 3 1 1 5 8 4 4 4 5 8 4 2 2 7 7 4 2 2 3 3 5 4 2 4 8 5 4 5 6 10 13 11 12 11 11 11 10 9 9 8 9 16 15 15 16 17 16 16 16 16 16 15 15 16 15 15 13 13 13 13 13 12 12 13 13 14 14 14 15 15 14 14 14 13 13 12 12 12 11 11 10 10 10 9 10 11 12 11 11 11 10
0 3 4 3 1 3 5 3 5 5 9 6 5 6 6 7 3 3 3 5 3 3 6 1 11 13 10 1 5 4 0 7 6 6 4 12 11 10 11 11 12 12 11 10 9 9 11 15 15 15 16 16 16 16 16 16 15 15 15 15 14 14 13 13 13 13 13 13 12 13 14 14 14 14 14 14 13 13 13 12 12 12 11 11 11 10 10 9 9 9 9 10 10 10 10 10 10
1 2 1 2 1 1 1 2 6 4 6 7 4 8 10 9 5 2 0 1 2 2 1 1 4 9 3 4 5 5 5 3 12 12 13 12 11 10 11 11 13 12 10 10 9 8 15 15 15 15 17 16 16 16 16 16 16 15 15 15 14 13 13 13 12 11 12 13 13 13 14 14 14 14 14 14 13 12 12 12 12 11 11 11 11 11 9 8 8 8 9 9 9 9 10 10 11
2 3 1 4 1 1 0 4 6 3 6 4 9 8 12 10 7 2 4 3 2 2 3 2 0 8 1 10 6 3 7 12 14 16 12 12 11 11 9 11 14 11 11 10 9 8 9 14 14 15 17 16 16 16 16 16 15 15 15 14 14 11 11 12 12 12 12 11 12 13 14 13 13 14 13 13 12 12 12 12 11 11 11 11 11 10 9 8 8 8 8 8 8 9 9 10 11
1 2 1 2 3 3 1 6 1 5 3 5 7 12 10 7 5 4 6 3 5 6 1 5 4 12 12 12 7 4 7 12 14 11 10 11 11 9 9 11 12 15 11 10 8 8 8 16 15 15 15 17 17 16 16 15 15 15 15 15 13 11 12 12 10 10 11 13 13 13 13 13 12 12 12 12 12 11 12 11 11 11 11 11 10 9 8 8 7 7 7 7 8 9 9 9 10
0 3 2 2 1 2 5 6 4 6 4 4 8 13 14 11 8 7 5 2 5 6 6 14 11 13 10 8 4 4 9 11 14 12 10 10 10 10 10 10 11 13 13 11 9 8 9 10 17 14 13 15 13 12 12 14 15 14 12 11 12 12 12 11 10 11 12 13 13 14 13 13 12 12 12 12 11 11 11 11 10 11 11 10 9 8 7 7 7 7 6 6 8 9 9 9 10
0 1 1 2 3 6 5 2 4 7 7 4 8 9 5 7 5 3 2 6 5 6 8 4 6 14 11 7 6 9 9 8 9 11 10 10 10 11 10 8 9 8 10 10 9 7 7 8 8 13 14 12 11 12 12 14 14 13 11 12 12 11 11 9 10 11 11 12 12 11 11 12 12 12 12 12 11 11 11 11 11 10 10 10 9 7 6 6 6 6 6 6 8 9 8 9 10
2 1 4 3 3 1 2 1 6 4 4 6 6 4 2 4 5 13 3 8 10 8 5 2 18 3 8 6 7 8 10 8 9 11 11 10 9 9 7 7 7 8 7 7 7 6 6 4 5 5 9 14 12 12 12 13 13 10 10 11 11 11 11 10 10 12 12 10 10 10 10 10 12 12 12 11 11 11 11 11 11 10 9 9 8 6 5 5 5 5 5 7 8 8 8 9 9
3 5 5 3 1 2 2 3 2 3 5 7 2 5 4 2 5 5 10 8 10 10 2 15 7 11 12 10 8 9 9 9 11 11 9 10 8 8 8 7 8 8 7 7 7 6 5 5 5 4 5 5 6 9 11 12 12 10 9 9 10 10 10 11 10 11 10 10 10 10 11 11 11 11 11 11 10 10 10 10 10 9 9 9 7 5 3 3 4 4 5 6 7 8 8 8 8
2 1 1 1 1 1 2 3 3 2 7 2 4 8 8 3 2 5 13 11 3 2 10 5 10 9 9 13 9 11 12 13 11 9 9 8 9 9 9 8 8 9 8 7 5 5 5 6 5 6 6 5 5 5 3 7 11 10 9 10 9 10 10 10 9 10 11 11 10 11 11 11 10 10 10 10 9 9 9 9 9 8 8 8 7 5 2 2 3 3 5 6 6 7 8 8 6
3 2 1 1 3 3 5 2 3 2 9 1 5 7 7 4 2 4 1 7 5 6 4 6 3 2 14 5 13 17 18 13 11 10 9 10 9 9 10 10 7 6 5 6 6 6 6 7 6 6 6 5 4 4 4 3 8 10 10 9 9 10 11 9 8 10 12 12 12 11 10 7 8 6 9 7 8 8 8 6 8 7 7 7 7 6 3 1 1 2 4 5 5 6 7 6 6
1 1 0 0 5 3 3 3 3 3 6 5 6 7 7 4 3 3 4 6 16 3 5 3 1 5 12 9 16 20 17 13 12 11 11 9 8 7 6 6 6 5 4 5 5 6 7 7 7 6 5 5 5 4 3 3 5 9 8 10 10 10 11 10 8 10 10 9 8 7 6 3 3 2 3 2 6 3 5 7 7 6 6 6 5 5 4 1 1 2 3 4 4 5 5 5 6
2 1 2 4 4 2 4 5 4 2 3 6 12 8 7 2 3 3 11 14 12 11 11 9 13 10 14 16 17 17 16 15 13 13 9 8 7 7 8 6 5 7 5 5 5 5 6 6 7 6 5 6 5 5 3 3 2 5 3 4 4 7 9 9 7 4 6 2 7 4 3 2 2 2 1 3 2 1 3 7 6 6 6 6 5 4 3 2 1 1 1 2 3 4 5 3 5
3 1 2 6 2 6 3 3 6 2 6 6 8 9 4 2 2 1 7 3 10 14 8 14 16 16 17 17 17 18 15 14 11 10 11 11 9 9 8 7 7 7 6 5 4 4 5 5 5 6 6 6 6 6 5 4 6 5 4 4 4 7 6 5 3 3 2 2 3 2 2 2 2 1 0 1 2 2 1 5 6 6 6 6 6 4 4 3 2 1 0 1 2 5 3 3 5
4 3 5 4 4 4 4 5 8 5 4 6 8 9 5 7 1 1 5 9 7 19 13 13 17 18 18 18 18 16 14 11 9 11 9 8 6 8 11 10 8 5 5 5 5 4 5 5 5 5 6 5 5 5 5 5 5 5 4 4 5 4 4 4 3 3 3 2 3 2 2 2 2 1 2 2 3 1 1 3 5 5 6 6 6 4 4 4 4 3 2 1 3 2 2 3 6
2 3 4 2 5 4 7 6 10 9 0 3 5 5 4 6 0 3 10 12 2 4 17 26 21 21 19 19 18 16 14 12 9 8 8 7 5 5 7 7 7 7 6 6 5 5 4 5 6 5 5 4 4 5 6 4 4 4 4 4 3 3 4 3 3 3 3 3 3 3 2 2 2 1 1 2 1 1 0 1 0 0 2 1 3 2 1 1 1 0 1 2 2 1 1 2 5
2 5 4 5 2 3 8 10 10 5 1 2 3 4 4 4 2 6 11 12 7 8 5 16 24 24 23 20 17 15 14 11 10 8 9 10 10 8 7 7 7 6 7 7 7 6 4 5 5 5 5 5 5 4 5 6 6 5 4 3 4 3 4 3 2 3 3 3 3 3 3 3 2 1 2 2 2 1 1 0 1 1 0 1 0 1 1 1 2 2 2 1 1 2 1 0 2
4 3 3 5 6 5 4 5 4 1 1 2 5 2 1 2 2 1 7 5 3 9 10 8 17 18 18 18 17 16 14 12 11 12 9 7 7 7 9 8 9 10 6 7 6 5 6 5 5 5 5 5 5 4 4 4 5 4 4 4 4 3 3 3 2 2 3 3 3 3 3 2 2 1 0 1 2 2 2 1 1 1 2 2 1 1 2 2 2 2 2 2 0 1 1 1 1
4 5 0 5 4 6 9 9 10 7 5 6 2 3 2 1 4 2 6 3 11 14 13 14 13 14 16 18 15 16 14 12 14 12 7 10 12 10 6 6 5 6 6 6 6 5 5 6 5 5 5 5 5 5 5 4 4 4 4 4 3 3 3 3 2 2 2 2 2 3 2 2 2 2 1 1 1 1 2 2 2 2 2 3 3 2 2 2 2 2 2 1 1 0 1 2 2
3 3 3 5 4 6 8 8 10 9 9 7 1 0 1 3 2 3 4 10 13 15 15 15 14 14 13 14 15 14 14 11 9 6 3 3 3 6 6 6 8 6 8 6 5 6 5 5 5 5 5 6 5 4 4 3 3 3 3 2 2 3 2 2 2 2 2 1 1 2 3 3 2 2 2 3 0 1 1 1 1 3 3 3 2 4 2 2 2 2 3 3 1 1 1 2 3
4 7 4 5 5 6 5 6 8 10 7 1 1 5 5 11 12 11 5 9 13 16 15 14 13 15 13 14 13 14 12 11 8 7 7 5 4 6 7 7 6 7 7 7 6 4 4 4 4 4 5 5 5 4 3 3 3 3 2 2 2 2 3 2 1 1 1 1 1 2 2 2 3 3 3 2 2 3 2 2 1 2 3 3 2 4 3 2 3 2 4 3 3 2 1 2 1
2 2 4 6 8 5 4 5 6 7 4 1 1 5 6 2 6 2 5 9 15 16 15 11 12 13 14 11 8 7 12 11 12 5 2 4 5 5 8 8 7 5 5 6 6 5 5 4 4 4 3 4 3 3 3 2 2 3 3 3 2 3 2 2 1 1 1 1 1 1 1 1 1 1 2 2 2 3 3 3 3 2 3 3 3 4 3 3 3 3 3 4 4 3 3 0 0
2 4 2 4 7 6 4 2 7 2 5 2 4 2 0 3 4 9 11 9 14 18 14 13 11 12 13 14 16 8 10 9 4 5 6 6 4 4 7 7 8 7 6 6 5 6 5 4 4 3 3 2 2 2 2 2 2 2 2 3 3 2 2 2 1 1 1 1 1 1 1 1 1 2 2 2 2 2 2 3 3 3 4 4 3 4 4 3 3 3 3 3 4 3 4 2 0
4 3 2 6 4 3 2 6 5 2 3 2 3 4 2 4 7 11 12 12 12 14 14 13 12 12 11 13 10 7 9 6 4 4 4 3 3 2 7 6 7 8 3 5 6 7 6 4 3 2 2 2 2 2 2 2 1 2 3 3 2 1 1 1 1 1 2 2 1 1 2 2 2 2 2 2 2 2 2 2 3 4 4 4 3 4 4 3 2 1 2 2 3 3 2 1 2
5 1 2 4 3 4 7 1 3 4 3 0 1 2 1 2 9 11 13 15 13 13 12 13 11 8 8 8 8 8 8 7 5 4 3 3 2 3 6 7 8 6 6 5 7 6 4 3 1 2 2 3 2 2 2 2 2 2 1 1 1 1 1 1 3 2 2 2 2 1 2 2 2 2 2 2 2 3 4 4 3 4 4 3 3 3 4 3 3 2 2 0 3 2 2 2 2
1 3 1 1 1 3 3 1 5 7 3 2 2 1 3 2 7 11 12 16 19 14 12 13 10 7 9 9 10 9 8 6 7 6 3 3 5 4 6 7 7 6 5 6 7 6 5 3 3 1 3 3 3 3 3 3 3 2 1 1 1 1 2 3 3 2 3 3 2 2 2 3 3 2 2 2 3 3 4 5 4 4 3 3 3 3 4 3 3 5 3 3 2 3 2 2 3
1 2 4 3 3 4 6 3 7 7 1 3 5 1 3 6 9 11 12 12 14 16 13 13 13 10 10 9 9 9 9 8 9 9 7 6 4 6 6 8 6 6 6 6 6 6 5 5 4 3 3 3 2 3 2 3 2 2 1 2 1 1 3 3 3 3 3 2 2 2 2 3 3 4 4 3 4 4 4 5 5 4 3 2 3 3 3 4 3 3 3 3 3 4 2 2 2
4 3 3 1 1 4 3 1 4 5 3 1 5 4 3 1 8 12 13 15 14 15 14 12 12 11 10 9 9 11 11 8 8 7 9 6 4 4 5 7 7 7 6 6 5 5 5 4 4 3 3 3 3 3 2 2 2 2 2 1 2 2 2 3 2 2 2 2 3 3 2 2 2 2 3 3 4 4 4 5 5 4 3 2 2 3 3 3 3 3 3 2 3 4 3 2 2
2 2 4 3 3 2 1 5 1 2 3 2 1 3 3 5 9 10 1 7 14 14 15 14 11 8 10 9 11 10 10 10 8 6 8 7 6 5 4 6 7 6 5 5 5 5 4 3 3 3 3 3 2 1 1 1 1 2 3 2 3 2 2 2 2 1 3 2 2 3 1 1 2 3 3 4 4 5 4 4 4 5 3 2 2 2 3 2 2 3 4 3 4 3 4 3 3
4 1 1 1 0 3 3 2 2 3 1 4 2 3 1 6 11 12 20 10 10 16 13 14 13 11 12 12 11 11 10 9 8 7 8 8 8 6 5 5 6 5 5 5 4 4 3 2 1 2 2 2 0 1 2 2 2 2 3 2 2 1 1 2 2 2 3 2 4 3 2 1 2 2 3 3 4 3 4 4 5 2 2 2 2 2 1 1 2 2 3 4 2 4 5 4 5
5 5 4 3 3 2 2 5 2 2 2 3 2 3 3 8 10 8 10 8 7 9 8 10 11 10 13 11 9 9 9 9 7 8 9 8 7 7 6 6 5 5 5 5 5 4 3 2 1 1 1 2 1 2 3 2 2 3 2 2 1 1 2 2 2 3 3 3 4 3 3 3 2 2 2 2 4 4 2 3 4 2 2 1 2 4 3 2 1 2 3 3 3 2 2 3 3
3 2 2 2 3 4 4 3 3 1 3 1 4 6 4 1 3 10 15 14 3 4 12 2 9 11 11 10 10 10 10 9 7 10 10 9 9 7 7 6 6 6 5 5 5 3 3 2 2 1 2 1 0 2 2 1 0 2 2 1 3 2 1 1 3 4 4 4 3 3 3 3 2 2 2 2 3 3 3 3 3 3 2 2 3 4 4 4 2 1 1 2 3 3 3 2 2
3 3 3 2 2 4 3 1 3 2 1 2 5 11 7 2 4 5 13 14 14 7 6 9 10 11 10 11 10 10 8 7 10 10 11 9 8 8 7 6 6 8 5 5 5 5 4 4 5 4 4 4 4 1 0 2 1 2 2 3 2 2 2 3 4 3 4 3 3 3 3 3 2 2 1 2 2 3 4 3 3 4 3 2 3 3 3 4 3 3 2 2 2 3 3 3 3
3 4 2 1 5 3 6 3 3 0 5 2 2 12 6 4 6 8 13 13 11 13 14 15 16 16 12 11 11 9 11 12 11 11 11 9 10 9 8 7 7 7 8 7 6 8 7 7 6 5 5 5 5 4 3 0 1 1 1 2 1 2 2 2 3 2 1 2 3 3 3 2 2 2 2 2 3 3 4 4 4 3 4 4 3 3 3 4 3 2 4 4 3 1 3 2 4
5 3 3 6 3 4 2 2 3 5 2 6 6 12 7 6 5 6 4 9 8 11 14 12 11 13 12 10 9 11 13 13 10 11 11 9 9 9 8 7 7 8 8 8 7 8 6 6 6 7 6 6 5 5 3 2 1 1 0 0 1 0 1 2 2 2 3 3 3 1 2 2 2 3 2 1 2 2 3 4 4 3 3 3 4 5 4 4 3 2 3 3 2 5 2 3 4
1 5 4 4 3 3 4 2 1 3 7 10 12 8 2 5 9 7 4 6 6 4 7 9 10 9 10 9 10 10 10 10 10 12 10 9 11 10 8 6 7 8 8 7 7 6 5 7 6 6 6 5 5 6 6 4 6 6 5 4 5 5 4 7 7 8 8 5 4 5 5 2 2 3 3 3 2 3 2 3 3 3 3 3 3 4 5 6 4 5 5 5 6 5 5 3 3
3 4 9 6 4 4 0 1 1 3 1 6 7 4 2 4 7 9 8 5 8 4 5 10 9 7 7 9 11 9 7 7 10 10 9 9 11 10 10 9 8 7 9 7 6 6 7 7 6 5 5 6 6 6 6 6 7 7 7 7 7 5 6 7 7 6 7 7 6 4 5 5 3 3 3 4 4 4 5 4 3 3 3 3 2 4 5 5 4 3 4 5 6 6 7 6 5
4 7 9 5 5 4 3 0 3 1 3 8 3 7 2 1 9 7 8 9 10 9 4 10 12 8 5 8 10 8 10 10 10 8 8 10 9 11 10 9 7 9 8 5 5 7 7 7 6 5 5 5 5 6 6 6 8 7 7 6 5 6 5 5 4 5 5 5 4 6 5 4 3 2 2 1 2 2 2 3 3 3 3 3 3 3 5 7 6 5 4 5 5 5 5 7 7
5 2 6 7 4 4 2 2 2 5 2 4 1 1 6 3 7 11 7 10 12 12 11 11 7 7 6 9 9 9 8 9 9 8 9 10 9 10 11 7 7 7 6 5 6 7 8 6 7 6 5 6 6 5 7 7 6 5 6 6 6 6 5 4 6 6 6 5 6 7 5 5 4 3 3 3 2 3 2 2 2 2 3 4 3 4 4 4 4 5 6 6 6 5 6 7 8
3 3 10 8 8 6 6 5 5 3 2 6 3 5 3 5 5 2 7 8 7 11 9 10 6 2 6 10 11 11 9 8 10 10 8 10 9 9 9 9 7 7 7 6 5 5 6 4 8 6 7 6 6 7 7 7 6 5 6 6 6 5 5 5 4 5 6 7 7 8 7 7 7 6 4 4 4 3 3 4 3 3 3 4 3 5 4 4 4 4 5 5 5 6 6 7 6
2 7 4 4 2 2 5 5 5 3 2 7 5 6 3 2 0 6 3 5 3 2 5 10 12 11 10 11 12 10 9 8 10 12 8 9 9 9 8 8 9 7 6 5 3 6 6 4 9 9 7 5 6 8 7 8 8 6 7 7 7 6 6 5 4 6 7 6 7 8 7 7 7 7 8 6 6 5 4 3 3 3 4 4 4 4 4 4 4 4 5 6 7 7 6 6 8
3 6 4 1 1 0 0 1 2 2 4 9 7 7 6 2 6 8 10 8 12 9 5 6 8 10 10 10 12 10 9 8 10 11 7 8 8 8 7 8 9 6 5 6 5 5 3 7 9 10 8 7 8 8 7 7 7 6 6 6 7 7 7 7 7 9 8 8 8 7 7 6 6 6 6 6 6 6 7 5 4 4 4 4 4 4 4 4 3 4 5 5 7 8 7 6 6
5 3 4 1 3 3 1 1 2 3 7 6 7 11 7 7 5 7 1 3 13 13 12 13 12 13 9 7 9 11 9 10 9 11 8 7 9 8 6 7 7 5 6 6 5 5 5 7 8 10 9 7 7 6 7 7 6 6 7 8 8 7 7 6 7 7 7 7 7 7 6 5 7 5 6 7 7 9 7 6 5 5 5 5 5 4 4 4 4 4 4 4 4 6 6 7 6
5 6 7 8 2 2 4 1 4 7 7 3 2 10 1 7 0 1 9 6 12 10 8 11 13 13 11 9 9 9 9 10 8 9 8 5 7 7 7 5 4 6 7 5 6 5 5 7 9 10 7 5 6 5 6 6 7 7 7 7 6 5 6 6 6 6 6 6 6 6 7 7 7 8 9 8 9 9 7 7 7 6 5 5 5 5 5 5 4 4 4 5 5 6 5 5 5
9 8 7 8 5 5 6 2 0 3 4 2 1 5 5 2 1 4 8 8 8 11 9 7 8 12 10 9 8 8 8 8 8 7 7 6 6 4 3 4 4 7 6 5 5 4 5 7 8 9 5 4 4 5 5 6 6 5 6 6 5 5 5 5 5 5 5 5 5 6 6 6 6 6 7 7 7 7 8 7 7 7 6 6 6 5 5 5 4 4 5 6 6 6 6 7 7
7 3 8 7 5 4 4 3 7 7 5 2 3 5 3 5 1 4 4 10 11 10 10 9 8 8 9 8 7 8 9 7 7 7 7 7 5 4 5 5 4 5 5 5 4 5 7 6 7 7 6 5 5 5 5 5 5 5 5 5 5 4 5 5 5 5 5 5 5 6 6 6 7 7 7 7 8 9 8 8 9 9 9 9 8 7 6 6 5 4 5 6 6 5 6 6 6
4 5 6 4 12 6 2 5 6 4 3 2 2 1 2 2 3 2 8 11 12 12 11 11 10 9 9 9 7 7 7 7 6 7 6 5 5 5 5 6 5 5 5 6 6 6 7 6 6 5 4 4 5 5 5 5 5 5 5 6 6 6 5 6 6 6 6 6 7 8 8 8 8 8 8 9 9 9 9 9 9 9 9 10 11 12 11 8 7 5 5 5 7 5 6 8 8
5 8 11 12 6 2 3 2 1 4 6 1 1 1 2 1 1 3 11 13 11 12 10 11 11 10 9 8 7 7 7 6 7 6 6 6 5 4 5 5 6 6 6 6 5 5 6 6 6 5 4 4 5 4 4 4 6 6 7 7 7 7 7 6 6 7 7 7 7 7 7 7 8 9 9 9 10 10 10 10 9 9 10 12 12 12 11 12 12 10 9 8 7 6 7 8 6
6 9 7 3 3 2 3 4 1 1 6 2 1 2 5 5 3 4 9 13 13 13 12 11 12 11 10 9 8 8 7 6 6 5 4 4 4 6 7 7 6 6 5 6 6 4 5 5 5 5 5 6 5 6 6 7 7 7 8 9 8 7 6 7 7 7 7 8 8 7 7 8 8 7 8 8 9 11 10 11 9 10 10 10 11 10 10 11 11 8 9 9 10 10 9 7 7
10 7 7 9 3 9 2 2 2 2 1 2 2 5 3 6 3 10 13 14 15 15 13 12 13 11 11 10 9 8 7 7 6 6 6 6 7 7 10 8 6 6 6 6 5 5 5 5 4 5 6 6 5 5 6 7 7 6 6 7 8 8 7 7 6 7 7 8 8 8 7 7 7 7 8 8 8 9 10 10 10 10 9 10 10 10 10 10 10 9 9 8 9 9 9 10 8
2 7 9 3 5 4 3 5 4 7 3 3 3 7 4 6 4 13 15 15 15 17 16 13 11 10 10 10 9 9 8 7 7 7 7 7 7 8 10 9 7 6 6 5 6 6 6 5 5 6 7 8 9 9 7 8 7 7 7 8 8 7 7 7 6 7 7 7 7 7 7 7 8 7 7 7 7 7 8 8 9 9 9 10 10 9 10 10 10 9 9 9 9 10 9 9 10
4 7 6 2 1 1 6 1 2 5 7 5 5 3 4 5 8 12 13 15 14 16 14 12 11 11 11 11 10 9 8 7 7 8 8 9 9 9 9 8 7 6 6 7 7 7 6 7 8 8 9 9 8 6 7 6 6 7 8 8 7 7 8 7 7 7 7 6 6 7 7 7 7 8 7 7 7 7 8 9 9 9 9 10 10 10 10 10 9 10 9 9 9 10 10 9 9
9 8 7 8 7 4 7 7 2 3 7 5 5 6 2 5 2 10 11 10 12 12 13 11 13 12 10 9 10 9 8 6 7 8 8 8 8 8 9 7 6 8 9 9 7 8 9 8 8 8 8 6 6 7 6 5 5 6 7 7 7 6 7 7 7 6 7 7 6 6 6 7 8 7 7 8 9 7 7 8 8 9 9 9 9 9 10 10 11 12 12 9 9 11 11 11 9
Wind_Direction
324 318 307 305 59 75 53 2 297 308 64 232 279 199 248 253 275 317 286 6 331 267 312 20 44 40 197 178 122 113 32 125 258 145 210 131 99 116 127 126 124 126 125 126 126 122 125 123 122 123 125 125 125 123 121 118 115 112 109 109 109 108 108 110 110 109 108 107 107 106 105 108 108 108 111 114 116 116 117 115 112 110 109 108 107 106 105 101 99 99 100 98 91 90 84 82 82
296 308 358 351 59 43 306 113 100 336 36 349 245 63 247 288 -0 251 265 352 236 315 68 92 84 89 84 106 134 141 36 40 13 106 83 102 102 109 127 125 132 131 128 126 123 123 128 126 125 126 128 129 129 126 123 120 118 116 114 113 112 111 110 112 112 112 110 111 109 107 110 109 108 107 109 110 111 113 115 117 112 109 108 107 106 108 109 104 99 96 93 93 89 85 85 84 79
320 345 6 20 21 67 45 35 257 134 159 246 262 221 316 319 232 255 27 266 226 147 103 95 95 61 27 46 28 42 245 53 73 66 95 115 114 130 123 123 125 124 122 124 126 128 127 131 131 132 132 132 130 127 125 123 121 119 118 116 114 113 113 114 114 112 113 112 112 113 113 113 110 108 106 102 99 97 98 109 110 110 109 108 107 101 104 107 104 94 88 85 85 81 79 78 76
356 25 94 61 250 24 67 30 89 137 166 223 294 257 218 222 244 203 274 350 190 160 140 34 55 302 96 65 117 75 81 52 64 110 117 116 126 128 128 125 122 118 117 124 128 130 132 138 138 137 137 134 132 129 128 126 125 123 121 120 116 115 116 117 117 119 117 114 115 117 117 115 112 109 108 105 105 106 109 109 109 110 110 108 107 107 102 98 94 94 85 80 76 75 74 71 71
36 330 77 89 112 345 115 191 151 116 220 191 218 268 245 232 247 322 355 308 266 260 328 336 78 19 80 99 139 99 131 113 93 20 83 100 126 127 126 123 122 124 123 127 129 131 139 143 141 140 137 135 133 132 132 130 127 125 124 122 119 118 121 123 123 120 118 119 118 119 118 116 115 113 112 112 111 110 109 108 105 104 104 103 104 104 101 94 87 86 84 78 75 74 72 74 73
46 38 354 92 180 188 56 73 261 200 229 150 239 246 226 234 231 72 286 245 248 249 260 331 161 147 38 32 32 109 156 132 138 70 121 135 133 129 124 123 125 126 129 131 134 139 145 147 144 140 138 136 135 135 134 133 129 127 125 124 122 121 123 126 123 121 123 121 121 122 120 119 118 115 115 114 112 111 110 109 107 107 107 106 105 103 100 96 94 87 80 79 78 77 77 78 77
332 39 354 25 6 58 174 158 219 219 259 171 243 264 249 270 243 19 7 335 340 19 21 134 118 106 89 110 44 12 329 129 112 133 145 134 128 126 126 125 127 128 134 138 141 142 147 146 143 140 140 139 138 136 136 133 130 129 128 127 125 126 126 128 128 126 124 123 123 125 123 122 119 115 115 115 113 112 109 104 103 104 106 108 104 99 97 90 82 78 76 77 78 82 86 83 80
76 122 273 108 211 59 191 213 241 165 272 200 244 267 272 273 295 333 180 209 291 35 42 244 338 93 49 43 105 335 39 33 104 107 122 129 130 127 130 130 127 134 139 142 142 142 147 144 143 142 142 141 138 137 138 135 133 131 131 130 130 130 131 130 128 125 124 125 126 127 126 123 119 119 116 113 113 113 114 111 109 107 106 104 101 98 91 86 82 79 77 75 80 83 82 81 76
346 86 338 80 147 36 20 230 244 236 272 286 274 257 271 267 271 238 249 203 292 119 236 239 218 73 129 69 64 68 70 98 104 121 127 129 131 135 135 140 137 142 143 143 142 143 141 149 145 145 144 142 142 142 142 139 136 135 134 135 135 132 130 132 131 131 130 130 129 127 125 122 119 117 113 110 110 111 110 109 109 107 107 107 106 105 100 95 90 83 79 77 77 77 76 76 71
19 90 258 153 124 209 340 284 193 241 239 232 255 269 266 268 270 187 246 151 201 159 335 35 92 108 112 99 103 79 110 116 119 117 124 128 132 135 137 146 146 143 145 143 142 140 148 152 149 147 146 146 146 145 143 141 139 138 139 139 135 125 124 129 126 128 133 133 128 130 126 121 116 115 113 110 111 111 110 111 110 108 107 105 103 103 104 98 94 89 81 76 75 73 67 68 69
0 7 151 91 56 188 210 267 269 302 263 281 274 255 256 264 251 259 199 188 197 147 107 103 83 116 105 104 76 84 114 127 126 132 138 135 136 142 146 152 149 145 143 142 140 144 153 153 151 147 144 143 140 137 137 141 141 141 140 134 130 125 125 128 131 128 132 133 132 133 127 126 125 122 116 116 116 117 116 113 113 112 111 109 108 107 108 105 100 95 85 76 77 71 64 61 63
32 69 31 108 189 172 239 212 272 274 285 281 276 271 242 232 246 268 198 162 160 155 152 172 149 124 94 116 125 136 130 132 129 132 140 140 144 151 149 148 141 136 134 135 139 146 146 149 143 145 138 134 131 133 139 144 142 140 133 132 130 129 127 128 132 133 138 137 133 132 134 132 130 124 121 122 123 123 122 121 119 121 119 114 113 115 114 112 102 93 89 80 75 71 62 56 58
126 117 82 97 226 147 223 258 263 281 309 272 226 271 292 251 227 230 129 175 152 134 173 167 143 146 123 130 128 133 133 140 138 137 146 149 150 147 134 121 112 106 115 124 130 130 127 118 122 126 138 136 128 131 138 141 138 131 129 125 127 129 132 132 136 136 133 129 131 137 136 135 131 127 127 127 125 127 126 125 126 125 123 121 118 117 117 113 109 94 82 81 78 75 65 58 54
118 179 122 221 90 176 141 239 275 304 290 252 241 284 288 256 259 206 138 158 167 154 141 137 126 117 104 124 148 143 141 146 138 142 152 151 140 121 113 112 113 118 122 131 135 130 114 96 97 105 112 98 107 120 130 136 135 128 122 125 130 131 134 137 136 133 129 129 133 133 139 139 135 129 129 127 125 126 126 126 127 126 125 122 121 121 125 111 106 92 79 72 75 76 74 65 57
182 180 86 140 289 63 248 169 213 169 260 293 288 356 332 276 300 156 155 141 63 92 108 78 142 106 178 161 153 158 147 148 143 148 149 132 111 112 119 123 130 135 138 134 119 104 86 81 74 75 87 84 82 85 87 131 133 131 128 131 128 130 135 134 131 136 138 138 136 142 140 141 137 133 131 123 125 126 127 124 127 128 126 128 129 130 130 109 91 82 74 65 62 68 74 73 61
174 93 91 191 249 171 264 198 220 235 263 267 297 5 339 329 348 84 345 131 129 105 99 164 249 210 163 183 141 143 143 141 142 142 126 110 107 112 123 135 131 115 102 102 94 79 79 78 73 76 77 76 72 66 79 95 139 141 137 128 124 134 138 132 133 145 148 147 147 150 148 144 142 140 133 127 130 132 126 126 127 127 129 129 129 134 136 125 68 61 59 59 55 55 67 70 65
86 79 291 140 260 152 258 187 144 220 264 291 312 4 20 316 322 46 58 83 117 75 77 349 85 110 135 120 126 131 133 136 135 130 115 118 121 120 124 119 109 93 83 78 84 85 83 85 85 85 83 89 87 83 88 112 148 145 141 138 140 147 146 142 143 153 154 158 150 150 136 96 93 101 114 120 133 120 135 133 132 133 131 132 136 131 143 217 83 54 50 52 47 55 53 56 61
81 170 141 257 199 170 222 210 183 224 292 314 337 333 15 318 23 73 72 58 83 88 77 71 72 81 104 110 118 124 131 134 140 132 129 124 133 134 129 118 110 121 115 106 92 98 104 105 109 111 112 115 119 115 124 131 128 125 121 147 155 162 154 153 152 159 161 136 155 123 85 118 76 68 81 111 64 141 145 148 147 145 142 136 131 143 149 207 235 92 28 31 38 49 56 55 53
157 175 131 230 181 240 196 239 280 333 295 319 307 321 39 263 116 158 86 76 99 89 88 101 103 104 103 114 124 128 134 137 140 132 138 143 147 140 128 130 128 130 125 113 99 97 107 117 124 129 129 138 132 138 143 143 145 149 150 158 168 164 161 145 148 150 95 105 82 82 81 60 63 37 26 149 136 129 196 166 163 162 157 151 149 155 163 203 234 232 291 6 25 44 61 71 72
226 156 238 244 216 246 263 267 270 260 275 313 323 318 7 275 191 86 121 123 117 123 123 119 125 128 126 128 132 134 136 134 132 133 149 148 135 143 145 143 133 118 107 113 123 118 126 134 136 136 147 149 138 145 147 158 156 151 159 159 160 156 144 144 148 134 129 107 104 83 74 79 75 32 297 248 177 119 244 214 182 184 177 167 165 154 183 194 222 237 243 36 36 44 65 75 82
280 163 201 228 218 229 266 251 253 262 196 288 291 331 346 310 252 119 144 113 102 177 151 142 145 140 135 137 138 139 134 129 128 140 152 128 137 138 137 135 138 127 127 121 117 131 140 142 138 141 151 149 142 155 154 161 154 151 164 165 151 142 136 136 143 141 134 129 122 125 120 108 120 126 39 46 46 85 355 347 180 61 355 277 153 143 177 253 172 265 355 15 341 21 53 65 92
107 208 189 195 268 254 261 258 264 279 294 284 313 23 306 298 72 151 155 150 188 178 201 149 141 140 141 140 140 135 132 127 133 160 164 155 154 147 118 106 107 118 132 134 139 137 145 142 141 149 158 156 158 163 164 168 160 164 166 168 154 136 135 142 141 143 137 150 150 135 123 122 137 87 82 81 80 100 124 7 353 348 60 259 345 215 220 241 233 236 205 312 313 336 35 70 105
249 296 213 217 231 236 270 273 256 209 310 300 309 257 334 39 155 342 28 -0 124 112 120 133 131 133 133 130 135 134 124 127 151 183 168 129 142 159 150 144 141 144 146 140 136 138 141 135 141 152 158 155 158 163 170 166 166 167 167 166 155 152 135 145 150 138 159 162 152 140 136 154 155 131 85 119 133 117 156 180 222 288 292 281 259 201 245 248 239 238 239 223 290 2 335 334 320
202 245 301 284 208 227 259 274 280 283 275 267 216 23 67 90 130 0 56 30 99 105 118 121 117 119 127 133 134 130 124 142 178 185 133 161 172 170 126 109 104 103 128 137 136 134 144 144 146 149 155 158 161 168 163 168 167 168 173 174 164 161 144 174 156 157 159 154 150 156 148 154 166 170 231 292 245 130 174 184 195 215 242 259 283 246 232 258 266 266 261 251 227 246 281 299 296
206 252 246 260 270 243 260 262 274 275 270 258 143 58 93 108 106 54 58 102 105 109 118 120 122 119 120 126 130 124 125 151 189 189 169 154 71 78 89 108 118 123 138 148 130 133 144 144 138 148 159 168 166 162 162 169 165 166 165 146 158 179 139 166 150 129 142 141 126 153 147 159 164 176 200 226 148 264 260 208 193 224 220 244 250 261 245 251 264 263 268 277 243 249 261 287 300
199 225 237 261 253 262 273 299 277 272 277 243 74 96 123 113 83 53 90 106 112 116 117 123 121 121 127 132 129 128 130 162 189 193 199 101 111 127 118 119 128 137 151 144 136 138 143 141 140 154 169 177 162 150 151 160 163 146 122 127 157 174 161 149 142 144 160 153 147 156 188 174 191 191 199 195 190 231 241 242 222 250 238 234 222 249 244 243 239 269 280 279 281 257 254 266 320
173 220 241 253 264 279 262 225 269 273 260 293 125 150 162 229 76 63 97 116 120 117 121 116 116 119 124 128 76 101 127 161 197 166 96 108 131 132 128 132 144 138 139 144 139 143 153 149 146 160 172 177 141 142 146 151 115 113 119 133 181 165 168 140 142 172 191 223 217 169 188 188 190 196 189 192 197 219 245 245 238 243 261 244 217 237 231 219 227 229 248 267 272 273 259 225 61
285 249 265 272 268 268 272 268 252 285 293 217 134 165 179 336 82 149 132 133 129 127 130 126 124 123 130 124 137 156 147 184 154 127 150 157 168 145 139 143 146 145 154 153 145 142 143 164 154 170 173 149 138 126 134 124 132 146 146 147 184 165 148 149 159 156 240 228 211 193 182 216 213 215 205 226 224 226 222 240 254 244 247 236 227 230 228 215 202 222 239 244 256 263 271 302 289
278 300 323 287 347 324 246 204 234 184 266 235 145 117 28 349 128 138 133 133 134 127 130 127 129 127 127 126 121 132 143 131 114 117 156 138 115 131 127 129 134 140 121 133 137 143 145 159 165 168 138 137 126 128 108 110 148 180 166 183 174 153 168 143 178 191 247 263 236 187 190 197 225 217 230 231 247 256 257 235 242 242 244 246 227 233 231 220 174 163 245 261 254 248 249 227 106
354 35 169 318 333 324 272 198 232 204 256 180 16 284 286 317 132 138 139 139 139 133 128 131 128 130 120 116 118 122 123 129 124 142 144 129 99 101 119 122 127 129 132 125 127 130 133 144 158 136 144 131 144 108 119 141 184 196 179 137 173 117 130 198 229 207 222 240 247 234 218 216 221 230 227 256 264 271 269 261 241 246 245 244 233 230 235 224 230 220 228 217 267 249 241 195 153
138 258 84 201 111 263 279 171 188 186 291 152 69 235 294 199 148 145 150 149 144 140 134 131 129 119 124 119 125 121 114 113 130 126 122 106 93 96 109 103 113 116 112 112 118 124 139 148 164 108 164 166 177 148 161 190 198 189 155 135 157 122 172 210 227 221 218 229 210 217 212 220 226 223 234 250 270 266 269 270 263 250 235 236 223 222 225 231 221 231 227 239 253 266 254 195 196
326 44 282 325 155 275 291 281 164 178 334 86 91 257 241 188 162 158 154 149 142 136 135 133 133 132 129 119 113 113 117 124 123 121 113 100 102 117 113 118 113 123 115 108 107 114 135 146 167 142 178 183 160 168 181 198 190 168 143 190 137 163 196 215 221 219 225 237 236 237 201 208 216 215 216 217 243 244 247 257 263 272 256 222 229 229 218 227 221 232 239 216 256 266 245 264 233
349 148 266 225 159 247 345 258 217 190 118 358 152 191 82 249 180 164 159 154 149 134 135 133 128 122 119 121 121 125 124 110 99 103 108 105 99 102 107 112 117 117 107 109 118 126 133 148 148 158 200 198 185 181 182 186 158 154 136 128 160 183 214 235 235 229 236 227 229 236 208 203 212 209 213 218 228 239 241 247 258 273 283 247 221 226 232 237 215 220 243 226 205 249 240 228 251
277 13 198 205 173 242 232 298 309 227 120 190 49 135 228 180 176 149 48 171 141 135 136 131 124 124 126 126 128 124 116 110 102 93 93 97 98 96 100 111 109 110 123 119 126 134 136 141 154 176 215 228 196 162 136 165 144 113 122 160 160 168 219 235 246 266 259 252 246 252 234 213 206 207 217 219 227 231 230 237 265 271 284 284 252 208 232 240 236 214 240 220 204 215 223 211 225
175 157 104 302 250 179 207 154 261 106 34 157 78 81 290 167 170 158 160 220 156 142 138 132 133 133 132 130 126 119 113 104 96 90 93 96 98 95 91 92 95 93 96 101 98 99 109 113 139 196 213 250 301 62 80 38 26 65 93 99 111 158 226 256 268 278 263 288 275 269 269 235 229 222 222 223 227 217 225 231 241 252 254 269 287 289 243 244 231 236 243 257 224 218 214 212 208
172 160 172 163 170 220 200 245 273 158 108 111 163 162 189 174 169 137 68 5 166 121 98 122 124 132 130 124 119 117 110 101 104 98 95 96 105 104 95 93 84 87 91 88 86 89 84 65 37 8 330 325 27 61 71 27 15 19 6 4 16 254 253 270 272 260 274 257 258 264 261 255 237 233 224 225 239 252 274 248 242 227 250 287 298 303 302 313 274 239 260 264 273 263 231 191 169
152 133 127 178 190 284 282 257 260 79 89 359 116 61 43 315 192 129 139 154 314 106 121 2 130 131 117 119 122 117 111 112 108 100 98 101 103 106 105 98 96 89 86 88 88 83 90 114 98 30 314 296 125 119 101 105 18 334 344 316 257 253 265 237 244 251 256 258 264 255 259 254 242 249 242 200 233 259 255 255 245 229 183 224 260 276 303 310 304 259 239 222 240 253 258 162 195
171 162 155 243 170 244 249 292 340 24 122 329 69 75 41 7 106 112 134 136 154 167 137 144 127 113 115 120 122 120 122 120 110 105 103 98 100 105 102 98 95 91 79 79 76 72 58 52 52 29 12 11 5 353 231 140 189 197 193 235 223 236 223 225 255 236 237 253 258 270 273 271 260 240 238 199 213 218 243 235 240 248 240 235 251 252 271 291 305 313 283 279 205 221 248 182 198
188 187 182 201 259 238 286 300 318 90 85 347 55 83 70 60 119 150 149 149 151 150 150 146 133 130 132 132 128 127 120 110 104 110 103 104 100 92 90 86 83 83 75 68 70 71 63 58 49 46 31 22 11 8 35 5 246 250 229 269 218 275 239 229 228 227 187 204 225 244 257 262 252 253 229 220 229 225 226 232 234 240 237 238 235 248 240 262 262 284 299 263 282 240 242 205 197
179 153 155 211 233 142 289 302 15 8 126 154 108 95 89 90 64 86 108 136 134 133 130 122 127 127 127 129 130 125 113 107 114 112 112 109 101 93 81 75 78 79 72 67 63 69 68 58 49 44 35 26 14 4 14 8 66 124 189 207 302 270 323 336 349 354 13 24 354 322 309 302 282 273 272 253 239 240 237 241 243 236 256 253 252 250 252 251 228 216 218 253 241 274 250 254 206
183 173 164 209 153 190 153 217 48 48 37 114 91 69 69 129 138 128 87 65 54 41 54 67 87 93 106 113 113 103 103 117 115 109 107 105 96 86 82 73 74 77 76 71 67 66 68 67 51 50 44 31 21 10 10 17 34 25 15 19 26 15 9 18 19 5 0 355 358 7 333 325 324 323 334 328 319 298 275 261 256 251 255 260 271 273 249 249 233 206 218 228 230 244 258 249 228
231 228 196 197 150 182 89 2 84 29 61 288 130 57 315 192 174 149 139 116 114 84 98 121 109 90 114 119 113 101 97 100 103 99 108 102 102 92 78 66 68 73 70 62 67 72 71 64 58 46 43 35 27 15 12 35 43 42 40 41 28 22 23 20 13 356 349 0 353 331 359 7 3 343 343 349 343 330 323 314 303 293 269 280 230 244 278 276 247 220 197 210 227 224 242 249 256
166 253 203 157 156 144 130 336 68 73 143 237 188 145 227 267 194 174 157 141 131 130 191 130 125 137 125 118 112 112 113 103 91 92 101 95 92 91 74 73 69 70 65 51 68 72 68 72 63 55 46 44 27 22 23 34 40 39 51 61 59 50 42 18 4 8 7 353 357 12 3 357 10 351 337 2 298 307 314 329 329 319 301 289 282 270 271 274 268 244 233 218 226 233 228 250 253
221 234 118 137 158 162 190 187 185 234 239 293 100 138 151 201 226 165 146 147 150 148 148 130 103 108 116 118 109 112 110 108 105 96 91 87 78 90 91 77 75 74 76 58 65 67 63 65 68 52 44 44 27 27 36 35 47 32 45 44 48 41 35 21 13 9 7 8 16 17 4 359 -0 14 351 330 331 326 316 302 284 284 286 272 252 229 252 264 279 277 253 235 230 224 230 238 255
214 131 132 158 176 185 190 195 218 222 205 280 196 104 98 211 183 137 149 146 174 148 146 124 124 143 129 123 114 114 112 110 112 98 88 91 89 84 94 87 74 71 66 62 58 75 68 59 76 58 45 39 35 42 44 35 42 39 45 41 40 35 24 21 13 18 18 7 14 9 12 4 2 0 357 348 332 312 308 300 301 295 279 276 256 250 244 244 253 274 286 284 261 247 234 232 248
254 121 120 147 160 162 170 191 198 262 144 245 185 168 122 241 340 181 190 168 194 123 134 135 143 141 139 131 118 113 106 104 96 95 90 91 91 89 83 94 81 62 72 67 49 63 62 57 69 65 53 45 41 44 46 43 40 36 43 40 37 27 21 17 24 27 26 15 15 7 5 8 4 1 356 350 344 347 336 321 307 292 279 272 266 262 274 276 269 264 263 264 271 276 261 238 231
179 112 87 38 127 271 37 102 140 54 253 239 169 188 127 214 216 198 179 194 166 150 157 144 140 130 128 127 118 116 113 105 103 99 92 95 97 91 85 85 86 73 71 66 60 63 78 74 70 63 48 42 39 37 34 42 41 37 41 48 44 36 24 23 23 22 14 17 11 2 2 355 1 359 349 347 354 355 351 341 328 310 296 289 287 287 278 270 258 252 259 262 261 261 264 254 243
119 139 126 106 298 24 50 325 73 182 255 259 186 176 156 192 209 226 177 142 160 157 158 151 141 135 128 124 117 119 116 108 105 107 107 107 102 90 94 88 89 96 70 59 55 57 59 70 75 67 46 41 38 35 36 31 37 37 38 38 41 36 35 35 34 25 15 16 6 358 350 352 1 348 353 350 356 357 356 342 329 318 310 306 296 283 276 269 265 258 248 247 262 267 263 260 245
142 100 122 150 249 113 254 105 229 208 208 286 187 143 100 232 220 228 153 165 154 140 151 148 141 132 126 115 113 117 120 117 116 110 108 100 98 112 104 115 133 90 73 49 45 48 61 68 69 69 51 33 38 37 46 37 38 34 37 41 38 34 38 39 34 29 15 12 2 -0 360 360 351 3 355 347 353 351 349 345 342 334 322 308 296 295 285 279 272 267 267 268 268 271 269 266 267
154 169 157 149 168 180 205 246 150 320 273 298 18 199 182 65 134 341 148 146 126 112 98 88 125 127 121 118 117 118 116 116 113 113 117 109 94 95 119 94 81 81 74 56 48 66 72 72 72 77 59 38 38 42 41 45 37 36 37 40 37 33 34 32 29 27 13 7 3 360 1 353 350 351 337 339 332 340 355 347 345 342 334 322 313 302 292 287 284 276 278 278 273 268 262 257 256
190 128 143 178 150 163 197 185 193 204 204 275 285 139 245 146 259 352 131 121 114 108 108 116 115 110 107 109 112 110 105 98 98 98 98 109 125 115 80 74 64 63 63 72 83 79 75 73 77 77 65 40 50 45 42 39 32 29 34 42 37 36 33 27 23 21 13 3 360 -0 1 357 356 346 343 337 347 358 356 355 357 1 356 349 342 332 317 305 289 281 272 275 275 269 271 266 259
191 149 95 116 222 128 157 199 149 166 135 59 355 118 1 41 345 21 111 108 113 116 115 120 118 116 115 110 112 106 101 103 102 106 114 118 104 87 81 71 64 62 73 85 84 84 84 85 80 75 70 52 47 47 31 32 25 24 26 29 19 18 12 12 7 9 8 12 16 19 15 10 3 359 356 358 358 356 360 358 360 4 4 3 11 5 356 343 321 296 284 281 281 280 278 270 262
210 129 198 209 111 116 77 69 146 99 71 273 61 110 64 110 54 66 120 112 120 123 128 128 126 125 119 114 120 118 114 120 121 123 125 116 99 83 83 82 73 73 73 73 74 84 97 91 81 71 60 51 49 43 35 24 24 22 14 15 12 12 13 13 11 17 18 24 28 25 20 12 8 11 5 1 356 357 4 1 4 1 20 22 17 8 1 7 2 353 345 325 310 298 287 284 275
130 188 205 74 96 134 176 216 11 53 156 208 38 202 166 160 192 173 132 127 138 138 140 138 132 132 130 131 129 126 128 131 121 112 102 100 106 108 96 82 76 74 81 79 77 71 78 87 92 85 63 54 34 35 28 25 23 28 26 27 25 27 27 32 37 36 32 32 27 21 16 17 11 8 9 4 1 5 2 6 5 4 30 23 21 7 3 6 3 2 355 350 348 339 322 298 279
184 186 163 153 181 230 302 113 211 139 157 209 261 194 225 208 188 154 157 149 154 149 143 142 139 139 134 131 127 123 128 121 119 118 111 110 106 98 91 83 77 75 69 71 65 67 67 64 66 69 63 48 44 38 40 35 34 38 36 32 29 25 27 33 40 43 40 37 28 21 18 10 8 10 8 6 5 9 8 8 8 7 24 21 16 8 4 4 1 355 353 345 345 343 337 327 313
38 119 168 171 142 188 122 200 172 110 174 131 218 166 241 198 182 185 171 162 157 148 151 149 137 131 133 132 132 134 135 132 130 122 113 102 89 90 95 95 88 73 69 57 62 61 59 53 60 63 57 53 47 43 41 43 35 41 37 36 30 30 30 31 34 39 38 35 30 24 18 15 12 7 9 5 7 11 8 9 11 6 20 20 12 8 7 0 356 359 352 342 340 340 332 329 324
154 157 178 196 159 228 110 60 120 156 160 174 144 210 229 193 170 187 176 167 160 154 147 142 133 135 139 139 136 137 132 136 130 113 105 103 104 101 95 95 92 85 73 60 56 64 67 72 73 67 65 57 54 44 46 45 44 40 43 36 28 26 24 23 27 29 34 18 28 31 28 22 14 17 6 6 8 13 13 12 11 10 20 24 13 6 6 1 359 351 349 338 334 338 330 325 326
174 165 191 174 120 128 165 237 32 86 113 174 144 234 263 269 214 180 162 157 149 144 140 131 134 137 139 131 133 140 132 117 105 103 107 107 107 105 101 92 81 70 60 57 59 70 72 75 76 74 67 58 61 49 48 46 45 45 45 35 30 28 25 23 25 20 31 17 13 24 27 26 23 13 10 12 12 16 15 9 9 11 16 28 19 11 4 1 355 351 344 342 335 333 331 327 324